AST,Max TemperatureF,Mean TemperatureF,Min TemperatureF,Max Dew PointF,MeanDew PointF,Min DewpointF,Max Humidity, Mean Humidity, Min Humidity, Max Sea Level PressureIn, Mean Sea Level PressureIn, Min Sea Level PressureIn, Max VisibilityMiles, Mean VisibilityMiles, Min VisibilityMiles, Max Wind SpeedMPH, Mean Wind SpeedMPH, Max Gust SpeedMPH,PrecipitationIn, CloudCover, Events, WindDirDegrees
2012-12-1,78,72,65,64,59,54,83,65,47,30.16,30.08,30.04,7,5,4,15,9,,0.00,3,Rain,316
2012-12-2,75,70,65,57,50,36,68,50,21,30.14,30.08,30.04,10,9,7,13,10,,0.00,,,310
2012-12-3,77,70,62,59,53,48,73,58,39,30.11,30.04,29.98,10,6,4,12,6,,0.00,1,,307
2012-12-4,76,70,63,59,52,46,68,54,38,30.07,30.01,29.95,7,6,6,9,5,,0.00,2,,304
2012-12-5,78,71,64,66,56,48,78,58,31,30.04,29.99,29.92,9,6,4,15,4,,0.00,3,,141
2012-12-6,84,76,67,70,63,55,88,68,36,30.07,30.01,29.95,7,6,6,9,3,,0.00,2,,170
2012-12-7,80,74,67,70,66,63,88,76,51,30.14,30.07,30.04,6,5,3,7,3,,0.00,1,,34
2012-12-8,78,74,70,66,63,57,83,68,44,30.14,30.06,30.04,9,6,6,10,5,,0.00,,,11
2012-12-9,82,76,69,66,62,54,83,65,37,30.13,30.05,30.01,10,8,6,79,6,,0.00,1,,3
2012-12-10,83,76,68,66,62,55,78,60,32,30.06,29.98,29.92,9,6,4,8,4,,0.00,,,113
2012-12-11,88,78,68,70,62,52,83,61,31,30.00,29.93,29.89,9,5,3,14,5,,0.00,,,173
2012-12-12,78,73,68,68,54,48,83,53,28,30.07,30.01,29.92,6,4,2,18,14,,0.00,1,,319
2012-12-13,75,69,63,57,53,50,73,57,33,30.07,30.02,29.98,7,5,4,15,10,,0.00,,,305
2012-12-14,75,70,64,59,56,54,77,62,41,30.09,30.02,29.98,7,6,5,14,8,,0.04,3,Rain-Thunderstorm,322
2012-12-15,73,68,63,61,50,43,73,54,23,30.17,30.08,30.04,9,7,6,13,10,,0.00,2,,323
2012-12-16,68,64,59,57,55,52,88,75,60,30.15,30.09,30.04,6,5,3,14,8,,0.04,7,Rain,313
2012-12-17,71,65,59,59,53,46,94,65,36,30.21,30.16,30.09,10,6,4,16,9,,0.00,4,Rain,325
2012-12-18,72,68,63,57,53,46,68,57,40,30.28,30.21,30.18,10,8,6,12,7,,0.00,6,,340
2012-12-19,73,68,64,63,58,53,88,67,43,30.29,30.18,30.12,9,8,6,10,4,,0.00,,,342
2012-12-20,75,70,65,66,62,59,88,75,51,30.16,30.07,30.04,7,6,4,9,4,,0.00,5,,360
2012-12-21,79,72,66,68,65,61,94,79,54,30.06,30.01,29.95,6,5,5,9,3,,0.00,,,110
2012-12-22,83,74,65,68,65,55,94,78,39,30.10,30.03,29.98,7,4,0,12,6,,0.00,1,Fog,96
2012-12-23,78,73,68,70,66,64,88,78,61,30.15,30.08,30.04,7,4,2,15,7,,0.00,,,345
2012-12-24,80,74,67,66,64,61,88,72,48,30.12,30.06,30.01,7,4,3,9,6,,0.00,,,341
2012-12-25,79,72,65,68,64,61,88,76,51,30.05,29.97,29.89,7,5,4,9,3,,0.00,,,114
2012-12-26,80,72,64,70,63,48,94,74,44,30.06,29.95,29.86,5,3,2,16,7,26,0.00,3,,319
2012-12-27,73,67,61,57,54,48,73,61,41,30.11,30.05,30.01,9,5,2,13,11,24,0.00,3,,306
2012-12-28,72,68,63,63,57,54,88,70,48,30.16,30.09,30.06,7,5,2,14,9,,0.08,5,Rain,11
2012-12-29,74,69,64,59,53,46,68,55,34,30.18,30.11,30.06,9,6,6,14,6,,0.00,4,,348
2012-12-30,76,71,66,57,52,43,73,56,22,30.18,30.10,30.06,11,6,6,15,8,,0.00,3,,338
2012-12-31,75,68,62,59,51,48,78,53,28,30.13,30.08,30.04,7,6,5,12,5,,0.00,1,,311